sat.trackr.live / text

‹ back to catalog

STARLINK-11179 [DTC]

NORAD 60190 · 2024-124H

PAYLOAD ACTIVE UNKNOWN

§ Identity

Operator
Country
US
Launch date
2024-07-03
Launch site
AFETR
Launch vehicle
Mass (kg)
RCS (m²)

Purposes: comms

External: N2YO · Heavens-Above · Gunter

§ Orbital elements

Epoch: 2026-05-24T17:31:49.876032Z

Period
91.74 min
Inclination
53.1588°
Eccentricity
0.0001143
Mean motion
15.69710172 rev/d
Perigee alt
359.0 km
Apogee alt
360.5 km
Semi-major
6,737.9 km
B*
7.7954e-7
RAAN
146.6598°
Arg perigee
73.7888°
Mean anomaly
286.3256°
Rev number
10,847

§ Raw data

STARLINK-11179 [DTC]1 60190U 24124H   26144.73043838 -.00000494  00000+0  77954-6 0  99972 60190  53.1588 146.6598 0001143  73.7888 286.3256 15.69710172108478

JSON: /api/v1/satellites/60190 · /tle

For live sub-satellite position, see the globe view (requires WebGL).

§ Visibility from observer

Set your observer location to see the next 7 days of passes ≥ 10°. The values pass through the URL so the page stays shareable.

No JS? Fill the form by hand. The geolocation button needs JavaScript.